• In Romania
  • List of Countries
  • For 7 days
  • Water Temperature
  • Satellite Maps
  • Weather Map
  • Weather Widgets
  • user-avatar
    Login

    Hourly Weather Edinburgh

    Today, 24 February, Saturday

    Time Temperature Precipitation Wind Pressure Humidity
    00:00 -2°C° 0 mm 4 mps 763 mmHg 82%
    01:00 -2°C° 0 mm 4 mps 763 mmHg 82%
    02:00 -2°C° 0 mm 4 mps 763 mmHg 81%
    03:00 -2°C° 0 mm 4 mps 763 mmHg 81%
    04:00 -2°C° 0 mm 4 mps 763 mmHg 81%
    05:00 -3°C° 0 mm 4 mps 763 mmHg 81%
    06:00 -2°C° 0 mm 3 mps 764 mmHg 85%
    07:00 -2°C° 0 mm 3 mps 765 mmHg 82%
    08:00 -2°C° 0 mm 4 mps 765 mmHg 79%
    09:00 -1°C° 0 mm 4 mps 765 mmHg 76%
    10:00 0°C° 0 mm 4 mps 766 mmHg 70%
    11:00 +1°C° 0 mm 4 mps 766 mmHg 64%
    12:00 +3°C° 0 mm 5 mps 766 mmHg 58%
    13:00 +3°C° 0 mm 5 mps 766 mmHg 56%
    14:00 +5°C° 0 mm 4 mps 766 mmHg 55%
    15:00 +5°C° 0 mm 4 mps 766 mmHg 53%
    16:00 +4°C° 0 mm 4 mps 766 mmHg 58%
    17:00 +1°C° 0 mm 4 mps 767 mmHg 63%
    18:00 +1°C° 0 mm 3 mps 767 mmHg 69%
    19:00 0°C° 0 mm 3 mps 767 mmHg 71%
    20:00 -1°C° 0 mm 4 mps 768 mmHg 72%
    21:00 -1°C° 0 mm 4 mps 768 mmHg 74%
    22:00 -2°C° 0 mm 4 mps 769 mmHg 76%
    23:00 -2°C° 0 mm 4 mps 769 mmHg 77%

    Tomorrow, 25 February, Sunday

    Time Temperature Precipitation Wind Pressure Humidity
    00:00 -2°C° 0 mm 4 mps 769 mmHg 79%
    01:00 -1°C° 0 mm 3 mps 769 mmHg 81%
    02:00 -1°C° 0 mm 3 mps 770 mmHg 82%
    03:00 -1°C° 0 mm 3 mps 770 mmHg 84%
    04:00 -1°C° 0 mm 3 mps 770 mmHg 85%
    05:00 -1°C° 0 mm 3 mps 770 mmHg 87%
    06:00 -1°C° 0 mm 3 mps 770 mmHg 88%
    07:00 -1°C° 0 mm 3 mps 771 mmHg 84%
    08:00 -1°C° 0 mm 4 mps 771 mmHg 80%
    09:00 -1°C° 0 mm 4 mps 771 mmHg 76%
    10:00 +1°C° 0 mm 4 mps 771 mmHg 70%
    11:00 +3°C° 0 mm 4 mps 771 mmHg 64%
    12:00 +4°C° 0 mm 4 mps 772 mmHg 58%
    13:00 +4°C° 0 mm 4 mps 771 mmHg 57%
    14:00 +4°C° 0 mm 4 mps 771 mmHg 57%
    15:00 +5°C° 0 mm 4 mps 771 mmHg 57%
    16:00 +3°C° 0 mm 4 mps 772 mmHg 62%
    17:00 +1°C° 0 mm 4 mps 772 mmHg 68%
    18:00 +1°C° 0 mm 3 mps 772 mmHg 74%
    19:00 -1°C° 0 mm 4 mps 772 mmHg 75%
    20:00 -2°C° 0 mm 4 mps 773 mmHg 77%
    21:00 -2°C° 0 mm 4 mps 773 mmHg 79%
    22:00 -2°C° 0 mm 4 mps 773 mmHg 79%
    23:00 -3°C° 0 mm 4 mps 774 mmHg 80%

    Day after tomorrow, 26 February, Monday

    Time Temperature Precipitation Wind Pressure Humidity
    00:00 -3°C° 0 mm 4 mps 774 mmHg 80%
    01:00 -2°C° 0 mm 3 mps 774 mmHg 81%
    02:00 -2°C° 0 mm 3 mps 775 mmHg 82%
    03:00 -2°C° 0 mm 3 mps 775 mmHg 83%
    04:00 -2°C° 0 mm 3 mps 775 mmHg 84%
    05:00 -2°C° 0 mm 3 mps 775 mmHg 84%
    06:00 -2°C° 0 mm 3 mps 776 mmHg 85%
    07:00 -1°C° 0 mm 3 mps 776 mmHg 81%
    08:00 -2°C° 0 mm 4 mps 776 mmHg 76%
    09:00 -1°C° 0 mm 5 mps 776 mmHg 72%
    10:00 0°C° 0 mm 5 mps 776 mmHg 66%
    11:00 0°C° 0 mm 5 mps 777 mmHg 60%
    12:00 +1°C° 0 mm 6 mps 777 mmHg 54%
    13:00 +1°C° 0 mm 6 mps 777 mmHg 54%
    14:00 +1°C° 0 mm 5 mps 777 mmHg 54%
    15:00 +1°C° 0 mm 5 mps 777 mmHg 53%
    16:00 0°C° 0 mm 5 mps 777 mmHg 59%
    17:00 -1°C° 0 mm 4 mps 777 mmHg 64%
    18:00 -1°C° 0 mm 3 mps 777 mmHg 69%
    19:00 -2°C° 0 mm 3 mps 777 mmHg 73%
    20:00 -2°C° 0 mm 3 mps 777 mmHg 76%
    21:00 -2°C° 0 mm 3 mps 777 mmHg 79%
    22:00 -2°C° 0 mm 3 mps 777 mmHg 79%
    23:00 -2°C° 0 mm 3 mps 776 mmHg 79%

    27 February, Tuesday

    Time Temperature Precipitation Wind Pressure Humidity
    00:00 -2°C° 0 mm 3 mps 776 mmHg 78%
    01:00 -2°C° 0 mm 3 mps 775 mmHg 76%
    02:00 -2°C° 0 mm 3 mps 775 mmHg 75%
    03:00 -2°C° 0 mm 3 mps 774 mmHg 73%
    04:00 -3°C° 0 mm 4 mps 774 mmHg 73%
    05:00 -3°C° 0 mm 4 mps 773 mmHg 74%
    06:00 -3°C° 0 mm 4 mps 773 mmHg 75%
    07:00 -2°C° 0 mm 4 mps 772 mmHg 74%
    08:00 -2°C° 0 mm 5 mps 772 mmHg 73%
    09:00 -1°C° 0 mm 5 mps 772 mmHg 72%
    10:00 -1°C° 0.2 mm 5 mps 772 mmHg 73%
    11:00 0°C° 0.2 mm 5 mps 772 mmHg 73%
    12:00 0°C° 0.2 mm 5 mps 771 mmHg 73%
    13:00 0°C° 0.1 mm 5 mps 771 mmHg 70%
    14:00 0°C° 0.1 mm 5 mps 771 mmHg 67%
    15:00 -1°C° 0.1 mm 6 mps 770 mmHg 64%
    16:00 -2°C° 0.1 mm 6 mps 770 mmHg 67%
    17:00 -2°C° 0.1 mm 5 mps 770 mmHg 70%
    18:00 -4°C° 0.1 mm 5 mps 770 mmHg 73%
    19:00 -4°C° 0.1 mm 6 mps 770 mmHg 73%
    20:00 -5°C° 0.1 mm 6 mps 771 mmHg 73%
    21:00 -5°C° 0.1 mm 6 mps 771 mmHg 73%
    22:00 -6°C° 0.1 mm 7 mps 771 mmHg 73%
    23:00 -7°C° 0.1 mm 7 mps 770 mmHg 72%

    28 February, Wednesday

    Time Temperature Precipitation Wind Pressure Humidity
    00:00 -7°C° 0.1 mm 7 mps 770 mmHg 71%
    01:00 -7°C° 0.1 mm 7 mps 770 mmHg 71%
    02:00 -7°C° 0.1 mm 7 mps 770 mmHg 71%
    03:00 -8°C° 0.1 mm 7 mps 769 mmHg 70%
    04:00 -8°C° 0.1 mm 7 mps 769 mmHg 70%
    05:00 -8°C° 0.1 mm 7 mps 769 mmHg 70%
    06:00 -8°C° 0.1 mm 7 mps 768 mmHg 70%
    07:00 -8°C° 0.1 mm 7 mps 768 mmHg 68%
    08:00 -8°C° 0.1 mm 8 mps 768 mmHg 65%
    09:00 -7°C° 0.1 mm 8 mps 768 mmHg 62%
    10:00 -7°C° 0.1 mm 8 mps 767 mmHg 60%
    11:00 -6°C° 0.1 mm 8 mps 767 mmHg 57%
    12:00 -6°C° 0.1 mm 9 mps 767 mmHg 55%
    13:00 -6°C° 0.1 mm 8 mps 766 mmHg 57%
    14:00 -5°C° 0.1 mm 8 mps 765 mmHg 59%
    15:00 -5°C° 0.1 mm 8 mps 765 mmHg 61%
    16:00 -6°C° 0.3 mm 8 mps 765 mmHg 65%
    17:00 -6°C° 0.3 mm 7 mps 765 mmHg 69%
    18:00 -6°C° 0.3 mm 7 mps 765 mmHg 73%
    19:00 -6°C° 0.1 mm 6 mps 765 mmHg 75%
    20:00 -6°C° 0.1 mm 5 mps 766 mmHg 77%
    21:00 -7°C° 0.1 mm 4 mps 766 mmHg 79%
    22:00 -7°C° 0.3 mm 4 mps 766 mmHg 79%
    23:00 -6°C° 0.3 mm 5 mps 766 mmHg 80%

    1 March, Thursday

    Time Temperature Precipitation Wind Pressure Humidity
    00:00 -6°C° 0.3 mm 6 mps 766 mmHg 81%
    01:00 -8°C° 0.2 mm 6 mps 765 mmHg 78%
    02:00 -8°C° 0.2 mm 6 mps 765 mmHg 76%
    03:00 -8°C° 0.2 mm 6 mps 764 mmHg 73%
    04:00 -8°C° 0.2 mm 7 mps 764 mmHg 76%
    05:00 -7°C° 0.2 mm 7 mps 763 mmHg 79%
    06:00 -7°C° 0.2 mm 8 mps 763 mmHg 82%
    07:00 -7°C° 0.3 mm 8 mps 762 mmHg 81%
    08:00 -6°C° 0.3 mm 9 mps 762 mmHg 80%
    09:00 -6°C° 0.3 mm 9 mps 762 mmHg 79%
    10:00 -7°C° 0.3 mm 10 mps 761 mmHg 78%
    11:00 -5°C° 0.3 mm 10 mps 761 mmHg 77%
    12:00 -6°C° 0.3 mm 11 mps 760 mmHg 77%
    13:00 -6°C° 0.3 mm 11 mps 760 mmHg 78%
    14:00 -6°C° 0.3 mm 11 mps 759 mmHg 78%
    15:00 -6°C° 0.3 mm 11 mps 759 mmHg 79%
    16:00 -5°C° 0.2 mm 10 mps 758 mmHg 80%
    17:00 -5°C° 0.2 mm 10 mps 758 mmHg 80%
    18:00 -5°C° 0.2 mm 10 mps 758 mmHg 81%
    19:00 -5°C° 0.1 mm 10 mps 757 mmHg 81%
    20:00 -5°C° 0.1 mm 10 mps 757 mmHg 81%
    21:00 -6°C° 0.1 mm 11 mps 757 mmHg 81%
    22:00 -6°C° 0.1 mm 11 mps 756 mmHg 81%
    23:00 -6°C° 0.1 mm 11 mps 756 mmHg 80%
    Show more